Voltar ao catálogo

METEOR 2-20 DEB

AtivoPO
NORAD 45524·DEBRIS·🇷🇺 Russia

Lançado Sep 28, 1990 de Plesetsk Cosmodrome

Loading…

Próximas Passagens (próximas 24 horas)

TLE

AtualizadoSource: Space-Track

Época: Sep 11, 2026, 19:21 UTC

1 45524U 90086F   26254.80640701  .00001113  00000-0  74402-3 0  9994
2 45524  82.5224  91.8046 0020877 319.4930  40.4684 14.00099004637443

Acompanhe METEOR 2-20 DEB em tempo real com AllMySat

Download on the App Store